Location: Palomar Mountain Lodge
(33.3110°N, 116.8495°W)
Time: 18:17:41
(UTC-08:00)

MOS 1 Rocket - Pass Details

Date: 13 December 2025
Orbit: 608 x 814 km, 97.4° (Epoch: 24 January)

Event Time Altitude Azimuth Distance (km) Brightness Sun altitude
Rises 17:14:23 0° 151° (SSE) 3,078 6.6 -7.1°
Reaches altitude 10° 17:16:39 10° 145° (SE) 2,195 5.8 -7.6°
Maximum altitude 17:21:15 45° 73° (ENE) 1,018 3.7 -8.5°
Drops below altitude 10° 17:26:07 10° 2° (N) 2,327 5.8 -9.4°
Sets 17:28:35 0° 357° (N) 3,283 6.6 -9.9°
